User: anonymous   Login
Location: Unspecified
(0.0000°N, 0.0000°E)
Time: 11:58:10
(UTC+00:00)
Language:

WGS F1 (USA 195) - Orbit

View from above orbital plane
View from above orbital plane
View from above satellite
View from above satellite

Ground track
Ground track

The orbit data is extracted from the following two-line orbital elements,

1 32258U 07046A   17275.99945602 0.00000000  00000-0  00000-0 0    06
2 32258   0.0780 100.3700 0000810 181.3940  95.8968  1.00270000    08
Epoch (UTC): 02 October 2017 23:59:13
Eccentricity: 0.0000810
inclination: 0.0780°
perigee height: 35783 km
apogee height: 35790 km
right ascension of ascending node: 100.3700°
argument of perigee: 181.3940°
revolutions per day: 1.00270000
mean anomaly at epoch: 95.8968°
orbit number at epoch: 0

The dashed part of the orbit path shows where the satellite is in the earth's shadow,  

DLR